Powrót do katalogu

COSMOS 1275 DEB

AktywnyPO
NORAD 42111·DEBRIS·🇷🇺 Russia

Wystrzelony Jun 4, 1981 z Plesetsk Cosmodrome

Loading…

Następne Przeloty (najbliższe 24 godziny)

TLE

Starzejące sięSource: Space-Track

Epoka: Sep 11, 2026, 06:20 UTC

1 42111U 81053PX  26254.26416308  .00003013  00000-0  10643-2 0  9998
2 42111  82.8059 200.2296 0040139  73.9376 286.6227 14.33989462662114

Śledź COSMOS 1275 DEB w czasie rzeczywistym z AllMySat

Download on the App Store